TimeEDT,TemperatureF,Dew PointF,Humidity,Sea Level PressureIn,VisibilityMPH,Wind Direction,Wind SpeedMPH,Gust SpeedMPH,PrecipitationIn,Events,Conditions,WindDirDegrees,DateUTC
12:14 AM,58.1,51.3,78,30.13,10.0,SW,5.8,-,N/A,,Clear,230,2012-10-05 04:14:00
12:55 AM,58.1,51.4,78,30.13,10.0,SW,6.9,-,N/A,,Clear,220,2012-10-05 04:55:00
1:14 AM,57.7,51.4,79,30.12,10.0,SSW,6.9,-,N/A,,Clear,210,2012-10-05 05:14:00
1:34 AM,59.0,51.8,77,30.13,10.0,SW,6.9,-,N/A,,Clear,220,2012-10-05 05:34:00
1:55 AM,58.3,51.8,79,30.13,10.0,SW,6.9,-,N/A,,Clear,220,2012-10-05 05:55:00
2:14 AM,58.3,51.8,79,30.13,10.0,SW,8.1,-,N/A,,Clear,230,2012-10-05 06:14:00
2:34 AM,57.2,51.8,82,30.12,10.0,SSW,8.1,-,N/A,,Clear,210,2012-10-05 06:34:00
2:55 AM,57.9,52.0,81,30.11,10.0,SW,6.9,-,N/A,,Clear,220,2012-10-05 06:55:00
3:14 AM,58.3,52.0,80,30.10,10.0,SW,8.1,-,N/A,,Clear,220,2012-10-05 07:14:00
3:34 AM,58.5,52.2,80,30.10,10.0,SW,8.1,-,N/A,,Clear,230,2012-10-05 07:34:00
3:54 AM,58.5,52.2,80,30.10,10.0,SW,6.9,-,N/A,,Clear,230,2012-10-05 07:54:00
4:14 AM,57.4,52.0,82,30.11,10.0,SW,5.8,-,N/A,,Clear,220,2012-10-05 08:14:00
4:34 AM,56.5,52.0,85,30.10,10.0,SW,5.8,-,N/A,,Clear,220,2012-10-05 08:34:00
4:55 AM,56.3,52.0,85,30.11,10.0,SW,6.9,-,N/A,,Clear,230,2012-10-05 08:55:00
5:14 AM,56.7,52.3,85,30.11,10.0,SW,6.9,-,N/A,,Scattered Clouds,230,2012-10-05 09:14:00
5:34 AM,57.7,52.7,83,30.11,10.0,SW,6.9,-,N/A,,Mostly Cloudy,230,2012-10-05 09:34:00
5:55 AM,57.2,52.3,84,30.11,10.0,SW,6.9,-,N/A,,Mostly Cloudy,220,2012-10-05 09:55:00
6:14 AM,57.7,52.7,83,30.11,10.0,SW,8.1,-,N/A,,Mostly Cloudy,230,2012-10-05 10:14:00
6:34 AM,57.6,52.5,83,30.11,10.0,SW,5.8,-,N/A,,Mostly Cloudy,230,2012-10-05 10:34:00
6:55 AM,56.7,52.3,85,30.12,10.0,WSW,4.6,-,N/A,,Scattered Clouds,240,2012-10-05 10:55:00
7:14 AM,56.7,52.3,85,30.12,10.0,SW,4.6,-,N/A,,Scattered Clouds,230,2012-10-05 11:14:00
7:34 AM,55.6,52.0,88,30.13,7.0,WSW,5.8,-,N/A,,Clear,250,2012-10-05 11:34:00
7:55 AM,56.5,52.9,88,30.13,7.0,West,4.6,-,N/A,,Scattered Clouds,260,2012-10-05 11:55:00
8:14 AM,57.9,53.6,86,30.12,7.0,West,4.6,-,N/A,,Mostly Cloudy,260,2012-10-05 12:14:00
8:55 AM,59.0,53.8,83,30.12,10.0,SW,4.6,-,N/A,,Overcast,230,2012-10-05 12:55:00
9:14 AM,59.0,53.8,83,30.12,7.0,WSW,3.5,-,N/A,,Mostly Cloudy,240,2012-10-05 13:14:00
9:34 AM,60.1,54.0,80,30.11,10.0,West,5.8,-,N/A,,Scattered Clouds,260,2012-10-05 13:34:00
9:54 AM,61.7,53.6,75,30.11,7.0,West,4.6,-,N/A,,Overcast,260,2012-10-05 13:54:00
10:14 AM,62.1,54.0,75,30.11,10.0,Calm,Calm,-,N/A,,Scattered Clouds,0,2012-10-05 14:14:00
10:34 AM,62.8,54.0,73,30.12,10.0,WNW,3.5,-,N/A,,Clear,290,2012-10-05 14:34:00
10:54 AM,63.0,54.1,73,30.11,10.0,West,3.5,-,N/A,,Mostly Cloudy,270,2012-10-05 14:54:00
11:15 AM,64.6,53.8,68,30.11,10.0,WSW,3.5,-,N/A,,Overcast,250,2012-10-05 15:15:00
11:34 AM,65.1,53.6,66,30.10,10.0,West,5.8,-,N/A,,Overcast,280,2012-10-05 15:34:00
11:54 AM,65.7,53.8,65,30.10,10.0,SW,6.9,-,N/A,,Overcast,230,2012-10-05 15:54:00
12:34 PM,67.5,54.3,63,30.10,10.0,West,8.1,-,N/A,,Overcast,270,2012-10-05 16:34:00
12:54 PM,67.6,54.5,63,30.11,10.0,WNW,11.5,-,N/A,,Overcast,290,2012-10-05 16:54:00
1:15 PM,66.7,53.8,63,30.09,10.0,West,5.8,-,N/A,,Overcast,270,2012-10-05 17:15:00
1:34 PM,68.0,53.8,60,30.08,10.0,WSW,5.8,-,N/A,,Overcast,240,2012-10-05 17:34:00
1:54 PM,68.9,54.9,61,30.08,10.0,WSW,8.1,-,N/A,,Overcast,250,2012-10-05 17:54:00
2:34 PM,68.9,53.2,57,30.04,10.0,West,8.1,-,N/A,,Overcast,260,2012-10-05 18:34:00
2:54 PM,69.3,54.0,58,30.04,10.0,West,9.2,16.1,N/A,,Mostly Cloudy,270,2012-10-05 18:54:00
3:15 PM,69.1,53.1,57,30.03,10.0,WSW,8.1,-,N/A,,Overcast,250,2012-10-05 19:15:00
3:34 PM,70.0,53.4,56,30.01,10.0,West,9.2,-,N/A,,Mostly Cloudy,280,2012-10-05 19:34:00
3:54 PM,70.0,53.2,55,30.00,10.0,WSW,4.6,-,N/A,,Mostly Cloudy,240,2012-10-05 19:54:00
4:15 PM,66.0,53.4,64,30.00,10.0,North,11.5,-,N/A,,Mostly Cloudy,360,2012-10-05 20:15:00
4:34 PM,63.3,52.9,69,30.00,10.0,North,8.1,-,N/A,,Overcast,350,2012-10-05 20:34:00
4:54 PM,59.7,50.9,73,30.00,10.0,North,12.7,-,N/A,,Overcast,350,2012-10-05 20:54:00
5:14 PM,56.5,49.8,78,30.00,10.0,North,12.7,16.1,N/A,,Overcast,360,2012-10-05 21:14:00
5:34 PM,55.4,49.5,80,30.01,10.0,North,8.1,-,N/A,,Overcast,350,2012-10-05 21:34:00
5:55 PM,54.9,49.8,83,30.01,10.0,North,6.9,-,N/A,,Overcast,360,2012-10-05 21:55:00
6:14 PM,53.8,50.0,87,30.01,5.0,NNW,9.2,-,N/A,,Overcast,340,2012-10-05 22:14:00
6:34 PM,52.3,49.1,89,30.02,10.0,NNW,10.4,-,N/A,,Overcast,340,2012-10-05 22:34:00
7:14 PM,51.4,48.6,90,29.98,10.0,North,4.6,-,N/A,,Overcast,10,2012-10-05 23:14:00
7:34 PM,50.9,47.8,89,29.99,10.0,NNW,6.9,-,N/A,,Overcast,340,2012-10-05 23:34:00
7:55 PM,50.2,46.4,87,30.01,10.0,North,9.2,16.1,N/A,,Overcast,350,2012-10-05 23:55:00
8:14 PM,49.5,45.1,85,30.02,10.0,North,12.7,18.4,N/A,,Overcast,350,2012-10-06 00:14:00
8:34 PM,48.9,44.1,83,30.02,10.0,North,13.8,-,N/A,,Overcast,350,2012-10-06 00:34:00
8:55 PM,48.2,43.7,84,30.02,7.0,North,10.4,-,N/A,,Overcast,360,2012-10-06 00:55:00
9:14 PM,47.5,43.7,87,30.03,7.0,North,9.2,16.1,N/A,,Overcast,360,2012-10-06 01:14:00
9:34 PM,46.8,43.3,88,30.02,5.0,North,9.2,-,N/A,,Overcast,350,2012-10-06 01:34:00
9:54 PM,45.5,42.1,88,30.04,3.0,North,11.5,16.1,N/A,,Overcast,350,2012-10-06 01:54:00
10:14 PM,44.8,41.9,90,30.02,4.0,North,10.4,-,N/A,,Overcast,10,2012-10-06 02:14:00
10:35 PM,44.8,42.1,90,29.99,10.0,NNE,9.2,-,N/A,,Overcast,20,2012-10-06 02:35:00
11:35 PM,44.6,41.9,90,30.00,4.0,NNW,6.9,10.4,N/A,,Overcast,340,2012-10-06 03:35:00
11:54 PM,44.4,41.9,91,29.99,7.0,North,12.7,16.1,N/A,,Overcast,350,2012-10-06 03:54:00